TimeCDT,TemperatureF,Dew PointF,Humidity,Sea Level PressureIn,VisibilityMPH,Wind Direction,Wind SpeedMPH,Gust SpeedMPH,PrecipitationIn,Events,Conditions,WindDirDegrees,DateUTC
12:52 AM,61.0,46.0,58,30.24,10.0,North,20.7,27.6,N/A,,Overcast,350,2013-05-03 05:52:00
1:52 AM,60.1,43.0,53,30.24,10.0,North,23.0,-,N/A,,Overcast,350,2013-05-03 06:52:00
2:52 AM,57.9,39.9,51,30.23,4.0,North,33.4,39.1,N/A,,Haze,350,2013-05-03 07:52:00
3:52 AM,57.0,39.0,51,30.24,7.0,North,25.3,32.2,N/A,,Overcast,350,2013-05-03 08:52:00
4:52 AM,55.9,37.0,49,30.24,7.0,NNW,26.5,33.4,N/A,,Mostly Cloudy,340,2013-05-03 09:52:00
5:25 AM,55.4,35.6,47,30.24,4.0,NNW,24.2,33.4,N/A,,Haze,340,2013-05-03 10:25:00
5:34 AM,55.4,37.4,51,30.24,6.0,NNW,23.0,33.4,N/A,,Haze,340,2013-05-03 10:34:00
5:52 AM,55.9,36.0,47,30.25,7.0,NNW,24.2,31.1,N/A,,Scattered Clouds,340,2013-05-03 10:52:00
6:01 AM,55.4,35.6,47,30.25,6.0,NNW,24.2,32.2,N/A,,Haze,340,2013-05-03 11:01:00
6:44 AM,55.4,33.8,44,30.27,8.0,NNW,25.3,33.4,N/A,,Scattered Clouds,340,2013-05-03 11:44:00
6:52 AM,55.9,34.0,44,30.28,7.0,NNW,25.3,32.2,N/A,,Mostly Cloudy,340,2013-05-03 11:52:00
7:52 AM,55.9,30.0,37,30.32,5.0,North,24.2,31.1,N/A,,Haze,350,2013-05-03 12:52:00
8:52 AM,59.0,30.2,34,30.33,5.0,NNW,26.5,34.5,N/A,,Haze,340,2013-05-03 13:52:00
9:52 AM,62.1,28.0,28,30.35,9.0,NNW,28.8,34.5,N/A,,Clear,330,2013-05-03 14:52:00
10:52 AM,63.0,26.1,25,30.33,10.0,NNW,24.2,35.7,N/A,,Clear,330,2013-05-03 15:52:00
11:52 AM,66.0,28.0,24,30.32,10.0,NW,24.2,31.1,N/A,,Clear,320,2013-05-03 16:52:00
12:52 PM,69.1,27.0,21,30.29,10.0,NW,21.9,31.1,N/A,,Clear,320,2013-05-03 17:52:00
1:52 PM,71.1,26.1,19,30.25,10.0,NNW,21.9,26.5,N/A,,Clear,330,2013-05-03 18:52:00
2:52 PM,72.0,25.0,17,30.21,10.0,North,15.0,31.1,N/A,,Clear,350,2013-05-03 19:52:00
3:52 PM,73.0,25.0,17,30.17,10.0,North,10.4,26.5,N/A,,Clear,360,2013-05-03 20:52:00
4:52 PM,73.9,23.0,15,30.13,10.0,North,16.1,23.0,N/A,,Clear,350,2013-05-03 21:52:00
5:52 PM,73.0,23.0,15,30.12,10.0,North,8.1,-,N/A,,Clear,360,2013-05-03 22:52:00
6:52 PM,72.0,23.0,16,30.10,10.0,NNW,5.8,-,N/A,,Clear,330,2013-05-03 23:52:00
7:52 PM,68.0,27.0,21,30.10,10.0,North,6.9,-,N/A,,Clear,350,2013-05-04 00:52:00
8:52 PM,60.1,43.0,53,30.12,10.0,East,5.8,-,N/A,,Clear,100,2013-05-04 01:52:00
9:52 PM,55.9,43.0,62,30.13,10.0,SE,4.6,-,N/A,,Clear,130,2013-05-04 02:52:00
10:52 PM,55.9,44.1,64,30.13,10.0,SE,5.8,-,N/A,,Clear,130,2013-05-04 03:52:00
11:52 PM,55.9,44.1,64,30.12,10.0,SSE,4.6,-,N/A,,Clear,150,2013-05-04 04:52:00